Accueil
METAR-TAF:

METAR-TAF

Aéroports :

Graham Municipal Airport

Graham, Texas, États-Unis

latitude: 33-06-36N, longitude: 098-33-19W, altitude: 342 m

Observation

Le bulletin a été fait il y a 21 minutes, à 03:15 UTC
Vent calme
Température 1°C
Humidité 86%
Pression 1027 hPa
Visibilité: 16.1 km
Ciel clair

METAR: KRPH 110315Z AUTO 00000KT 10SM CLR 01/M01 A3032 RMK AO2 T00131008

Heure: 21:36 (03:36 UTC)


TAF: absent

Observations et prévisions météorologiques de plus de 4000 aéroports (messages METAR et TAF).

Les stations disponibles sont représentées par des disques jaunes et rouges sur la carte.

Passer la souris dessus pour voir le nom de la station.

Cliquer dessus pour voir les observations et prévisions météorologiques.

Pour changer de carte: cliquez sur les boutons verts avec une croix noire pour zoomer, sur le bouton vert avec un tiret pour effectuer un zoom arrière, ou sur les flèches vertes pour les cartes adjacentes.


METAR-TAF: